FW1256 Weather Reports


Display with metric or nautical units.
time (UTC)temp
F
wind
direction
speed
MPH
gust
MPH
rain 1hr
in
rain 24hr
in
rain mn
in
humidity
%
barometer
mb
20260906124428 72 203 0.0 1.0 0.00 0.00 0.00 92 1018.2
20260906123927 72 337 1.0 3.0 0.00 0.00 0.00 92 1018.2
20260906123427 72 246 0.0 2.0 0.00 0.00 0.00 92 1017.7
20260906122922 72 240 2.0 2.0 0.00 0.00 0.00 92 1017.6
20260906122422 71 275 0.0 2.0 0.00 0.00 0.00 92 1017.7
20260906121919 71 221 2.0 2.0 0.00 0.00 0.00 92 1017.5
20260906121415 71 285 0.0 1.0 0.00 0.00 0.00 92 1017.6
20260906120911 71 352 0.0 2.0 0.00 0.00 0.00 93 1017.4
20260906120406 71 270 0.0 2.0 0.00 0.00 0.00 93 1017.5
20260906115902 71 311 2.0 2.0 0.00 0.00 0.00 93 1017.5
20260906115358 71 0 0.0 2.0 0.00 0.00 0.00 93 1017.4
20260906114856 71 123 0.0 2.0 0.00 0.00 0.00 93 1017.6
20260906114352 71 340 0.0 3.0 0.00 0.00 0.00 93 1017.3
20260906113847 70 279 0.0 2.0 0.00 0.00 0.00 93 1017.4
20260906113346 70 263 1.0 3.0 0.00 0.00 0.00 93 1017.0
20260906112841 70 286 2.0 2.0 0.00 0.00 0.00 93 1016.9
20260906112337 70 243 0.0 3.0 0.00 0.00 0.00 93 1016.5
20260906111832 70 0 0.0 3.0 0.00 0.00 0.00 93 1016.7
20260906111331 70 7 0.0 2.0 0.00 0.00 0.00 93 1016.5
20260906110827 70 340 0.0 2.0 0.00 0.00 0.00 93 1016.5
20260906110323 70 270 0.0 1.0 0.00 0.00 0.00 93 1016.4
20260906105821 70 246 1.0 2.0 0.00 0.00 0.00 92 1016.3
20260906105317 70 124 0.0 2.0 0.00 0.00 0.00 92 1016.2
20260906104813 70 355 0.0 2.0 0.00 0.00 0.00 92 1016.3
20260906104311 70 257 0.0 2.0 0.00 0.00 0.00 92 1016.1
20260906103804 71 339 0.0 4.0 0.00 0.00 0.00 92 1016.0
20260906103303 71 225 0.0 2.0 0.00 0.00 0.00 92 1016.2
20260906102759 71 0 0.0 2.0 0.00 0.00 0.00 92 1016.1
20260906102258 71 3 0.0 2.0 0.00 0.00 0.00 92 1016.0
20260906101754 71 173 0.0 2.0 0.00 0.00 0.00 91 1015.9
20260906101248 71 334 0.0 2.0 0.00 0.00 0.00 91 1016.2
20260906100744 71 294 1.0 3.0 0.00 0.00 0.00 91 1016.1
20260906100243 71 355 1.0 3.0 0.00 0.00 0.00 91 1016.0
20260906095738 71 262 0.0 4.0 0.00 0.00 0.00 91 1016.0
20260906095233 71 78 2.0 2.0 0.00 0.00 0.00 91 1016.1
20260906094732 71 0 2.0 2.0 0.00 0.00 0.00 91 1016.0
20260906094228 71 265 2.0 3.0 0.00 0.00 0.00 91 1015.9
20260906093724 71 319 0.0 2.0 0.00 0.00 0.00 91 1015.9
20260906093220 70 150 0.0 2.0 0.00 0.00 0.00 91 1015.7
20260906092715 71 325 1.0 3.0 0.00 0.00 0.00 91 1016.0
20260906092214 71 8 0.0 2.0 0.00 0.00 0.00 91 1015.8
20260906091711 71 345 0.0 2.0 0.00 0.00 0.00 91 1015.6
20260906091207 71 324 2.0 2.0 0.00 0.00 0.00 91 1015.5
20260906090703 71 0 2.0 5.0 0.00 0.00 0.00 91 1015.9
20260906090202 71 74 0.0 2.0 0.00 0.00 0.00 91 1015.6
20260906085701 71 172 0.0 1.0 0.00 0.00 0.00 91 1015.8
20260906085200 71 0 0.0 3.0 0.00 0.00 0.00 91 1016.0
20260906084655 71 331 0.0 2.0 0.00 0.00 0.00 91 1016.3
20260906084154 71 203 0.0 1.0 0.00 0.00 0.00 91 1016.2
20260906083649 71 285 0.0 2.0 0.00 0.00 0.00 90 1016.4
20260906083145 71 282 0.0 0.0 0.00 0.00 0.00 90 1016.4
20260906082640 71 203 0.0 2.0 0.00 0.00 0.00 90 1016.3
20260906082136 71 90 0.0 3.0 0.00 0.00 0.00 90 1016.4
20260906081632 71 170 0.0 2.0 0.00 0.00 0.00 90 1016.1
20260906081126 70 243 0.0 3.0 0.00 0.00 0.00 91 1016.3
20260906080623 70 206 0.0 3.0 0.00 0.00 0.00 91 1016.0
20260906080119 70 239 2.0 2.0 0.00 0.00 0.00 91 1015.8
20260906075618 70 169 2.0 2.0 0.00 0.00 0.00 91 1016.1
20260906075113 70 278 0.0 3.0 0.00 0.00 0.00 91 1016.1
20260906074608 70 339 0.0 3.0 0.00 0.00 0.00 91 1016.3
20260906074101 70 294 0.0 2.0 0.00 0.00 0.00 91 1016.2
20260906073557 70 344 0.0 3.0 0.00 0.00 0.00 91 1016.2
20260906073052 70 208 3.0 5.0 0.00 0.00 0.00 91 1016.4
20260906072547 70 33 2.0 3.0 0.00 0.00 0.00 91 1016.2
20260906072043 70 0 0.0 2.0 0.00 0.00 0.00 91 1016.3
20260906071539 70 356 0.0 3.0 0.00 0.00 0.00 91 1016.4
20260906071034 70 233 0.0 2.0 0.00 0.00 0.00 91 1016.4
20260906070530 70 0 0.0 2.0 0.00 0.00 0.00 92 1016.3
20260906070026 70 352 0.0 2.0 0.00 0.00 0.00 91 1016.3
20260906065525 70 168 0.0 1.0 0.00 0.00 0.00 92 1016.5
20260906065021 70 11 0.0 2.0 0.00 0.00 0.00 92 1016.5
20260906064516 70 148 0.0 4.0 0.00 0.00 0.00 92 1016.5
20260906064011 70 0 0.0 2.0 0.00 0.00 0.00 92 1016.3
20260906063507 70 270 0.0 1.0 0.00 0.00 0.00 92 1016.5
20260906063002 71 168 0.0 2.0 0.00 0.00 0.00 91 1016.3
20260906062456 71 206 0.0 2.0 0.00 0.00 0.00 91 1016.7
20260906061951 71 0 0.0 3.0 0.00 0.00 0.00 91 1016.3
20260906061448 71 68 2.0 3.0 0.00 0.00 0.00 92 1016.5
20260906060941 71 188 0.0 1.0 0.00 0.00 0.00 92 1016.5
20260906060439 71 339 2.0 4.0 0.00 0.00 0.00 92 1016.5
20260906055935 71 345 1.0 3.0 0.00 0.00 0.00 92 1016.3
20260906055431 71 319 2.0 4.0 0.00 0.00 0.00 92 1016.5
20260906054926 71 270 0.0 3.0 0.00 0.00 0.00 92 1016.4
20260906054420 71 294 1.0 3.0 0.00 0.00 0.00 92 1016.5
20260906053916 71 301 0.0 3.0 0.00 0.00 0.00 93 1016.4
20260906053412 71 0 0.0 2.0 0.00 0.00 0.00 93 1016.4
20260906052908 71 243 0.0 1.0 0.00 0.00 0.00 93 1016.3
20260906052404 71 0 0.0 1.0 0.00 0.00 0.00 92 1016.3
20260906051901 71 262 0.0 1.0 0.00 0.00 0.00 92 1016.3
20260906051400 71 337 0.0 0.0 0.00 0.00 0.00 92 1016.3
20260906050856 71 352 0.0 2.0 0.00 0.00 0.00 92 1015.9
20260906050351 71 325 0.0 2.0 0.00 0.00 0.00 92 1016.1
20260906045850 71 286 0.0 1.0 0.00 0.00 0.00 91 1015.9
20260906045349 72 262 1.0 2.0 0.00 0.00 0.00 91 1016.0
20260906044846 72 270 0.0 2.0 0.00 0.00 0.00 91 1015.9
20260906044346 72 14 1.0 4.0 0.00 0.00 0.00 91 1015.7
20260906043841 72 254 0.0 1.0 0.00 0.00 0.00 91 1015.6
20260906043337 72 331 1.0 2.0 0.00 0.00 0.00 92 1015.4
20260906042832 72 48 0.0 2.0 0.00 0.00 0.00 92 1015.5
20260906042331 72 240 1.0 1.0 0.00 0.00 0.00 92 1015.3
20260906041827 72 262 0.0 2.0 0.00 0.00 0.00 92 1015.4
20260906041322 72 345 0.0 0.0 0.00 0.00 0.00 92 1015.3
20260906040823 73 345 0.0 0.0 0.00 0.00 0.00 91 1015.5
20260906040318 73 345 0.0 1.0 0.00 0.00 0.00 91 1015.5
20260906035813 73 279 0.0 0.0 0.00 0.00 0.00 90 1015.4
20260906035308 73 349 0.0 0.0 0.00 0.00 0.00 90 1015.5
20260906034803 74 349 0.0 0.0 0.00 0.00 0.00 89 1015.3
20260906034258 74 270 0.0 1.0 0.00 0.00 0.00 89 1015.3
20260906033754 74 0 0.0 2.0 0.00 0.00 0.00 89 1015.3
20260906033253 75 303 2.0 2.0 0.00 0.00 0.00 88 1015.4
20260906032750 75 352 2.0 2.0 0.00 0.00 0.00 88 1015.2
20260906032250 75 331 0.0 3.0 0.00 0.00 0.00 88 1014.9
20260906031745 75 286 0.0 2.0 0.00 0.00 0.00 88 1014.8
20260906031241 75 336 0.0 2.0 0.00 0.00 0.00 88 1015.0
20260906030740 75 233 0.0 2.0 0.00 0.00 0.00 88 1014.9
20260906030236 75 270 0.0 2.0 0.00 0.00 0.00 87 1015.0
20260906025735 76 246 1.0 4.0 0.00 0.00 0.00 87 1014.9
20260906025229 76 294 2.0 2.0 0.00 0.00 0.00 87 1015.2
20260906024728 76 348 0.0 2.0 0.00 0.00 0.00 86 1014.7
20260906024228 76 279 0.0 4.0 0.00 0.00 0.00 86 1015.1
20260906023724 76 14 0.0 3.0 0.00 0.00 0.00 86 1015.0
20260906023219 77 270 1.0 2.0 0.00 0.00 0.00 85 1014.9
20260906022714 77 203 0.0 2.0 0.00 0.00 0.00 85 1015.0
20260906022209 77 325 0.0 2.0 0.00 0.00 0.00 85 1014.8
20260906021705 77 152 0.0 3.0 0.00 0.00 0.00 84 1015.0
20260906021204 77 45 0.0 2.0 0.00 0.00 0.00 84 1014.6
20260906020659 78 287 0.0 2.0 0.00 0.00 0.00 84 1015.3
20260906020154 78 148 0.0 3.0 0.00 0.00 0.00 83 1014.8
20260906015648 78 228 0.0 3.0 0.00 0.00 0.00 83 1014.6
20260906015146 79 247 3.0 3.0 0.00 0.00 0.00 83 1014.5
20260906014641 79 10 0.0 3.0 0.00 0.00 0.00 82 1014.5
20260906014137 79 188 3.0 3.0 0.00 0.00 0.00 82 1014.5
20260906013633 80 148 0.0 4.0 0.00 0.00 0.00 82 1014.5
20260906013128 80 152 2.0 3.0 0.00 0.00 0.00 81 1014.6
20260906012628 80 270 0.0 9.0 0.00 0.00 0.00 81 1014.2
20260906012122 80 239 0.0 2.0 0.00 0.00 0.00 81 1014.3
20260906011619 81 0 0.0 5.0 0.00 0.00 0.00 80 1014.3
20260906011118 81 117 3.0 3.0 0.00 0.00 0.00 80 1014.2
20260906010614 81 188 0.0 2.0 0.00 0.00 0.00 79 1014.2
20260906010110 81 161 0.0 2.0 0.00 0.00 0.00 79 1014.0
20260906005604 82 270 0.0 3.0 0.00 0.00 0.00 79 1013.6
20260906005103 82 0 0.0 2.0 0.00 0.00 0.00 79 1013.9
20260906004602 82 172 0.0 2.0 0.00 0.00 0.00 79 1013.8
20260906004057 82 352 0.0 3.0 0.00 0.00 0.00 79 1013.7
20260906003552 83 209 0.0 1.0 0.00 0.00 0.00 79 1013.8
20260906003049 83 325 0.0 2.0 0.00 0.00 0.00 78 1013.8
20260906002549 83 261 1.0 3.0 0.00 0.00 0.00 77 1013.8
20260906002044 84 291 0.0 2.0 0.00 0.00 0.00 77 1013.7
20260906001539 84 203 0.0 2.0 0.00 0.00 0.00 77 1013.9
20260906001033 85 294 0.0 1.0 0.00 0.00 0.00 77 1013.8
20260906000529 85 246 0.0 3.0 0.00 0.00 0.00 76 1013.7
20260906000024 86 243 0.0 1.0 0.00 0.00 0.00 75 1013.7
20260905235518 87 18 0.0 2.0 0.00 0.00 0.00 74 1013.7
20260905235013 89 270 0.0 1.0 0.00 0.00 0.00 73 1013.5
20260905234509 88 315 0.0 2.0 0.00 0.00 0.00 72 1013.4
20260905234009 89 348 1.0 3.0 0.00 0.00 0.00 72 1013.3
20260905233504 89 286 0.0 2.0 0.00 0.00 0.00 71 1013.3
20260905233003 91 325 0.0 1.0 0.00 0.00 0.00 70 1013.2
20260905232459 91 270 0.0 1.0 0.00 0.00 0.00 68 1013.2
20260905231954 92 106 0.0 1.0 0.00 0.00 0.00 66 1013.3
20260905231450 91 0 0.0 0.0 0.00 0.00 0.00 67 1012.9
20260905230946 91 352 0.0 2.0 0.00 0.00 0.00 67 1013.1
20260905230444 92 320 0.0 3.0 0.00 0.00 0.00 67 1013.2
20260905225943 94 337 0.0 2.0 0.00 0.00 0.00 64 1013.2
20260905225438 95 278 1.0 2.0 0.00 0.00 0.00 62 1013.1
20260905224933 95 262 1.0 2.0 0.00 0.00 0.00 63 1013.2
20260905224429 94 283 1.0 3.0 0.00 0.00 0.00 66 1013.3
20260905223922 94 246 0.0 3.0 0.00 0.00 0.00 64 1013.1
20260905223421 95 228 0.0 4.0 0.00 0.00 0.00 63 1013.1
20260905222921 96 289 2.0 2.0 0.00 0.00 0.00 63 1013.0
20260905222420 96 270 0.0 1.0 0.00 0.00 0.00 63 1013.3
20260905221916 95 270 2.0 2.0 0.00 0.00 0.00 64 1013.2
20260905221413 95 257 0.0 3.0 0.00 0.00 0.00 64 1013.2
20260905220909 94 282 0.0 4.0 0.00 0.00 0.00 67 1013.2
20260905220404 93 263 0.0 3.0 0.00 0.00 0.00 69 1013.2
20260905215903 93 279 0.0 2.0 0.00 0.00 0.00 68 1013.1
20260905215359 91 331 2.0 3.0 0.00 0.00 0.00 72 1013.3
20260905214855 90 279 1.0 1.0 0.00 0.00 0.00 74 1013.2
20260905214350 90 270 0.0 1.0 0.00 0.00 0.00 75 1013.2
20260905213845 90 289 2.0 2.0 0.00 0.00 0.00 73 1013.3
20260905213342 91 286 0.0 3.0 0.00 0.00 0.00 72 1013.1
20260905212841 93 258 0.0 3.0 0.00 0.00 0.00 70 1013.1
20260905212336 93 270 0.0 2.0 0.00 0.00 0.00 69 1013.3
20260905211836 93 352 0.0 2.0 0.00 0.00 0.00 69 1012.9
20260905211331 91 249 1.0 2.0 0.00 0.00 0.00 71 1013.3
20260905210827 90 337 0.0 1.0 0.00 0.00 0.00 72 1013.2
20260905210322 91 180 2.0 2.0 0.00 0.00 0.00 69 1013.2
20260905205821 93 346 1.0 2.0 0.00 0.00 0.00 68 1013.1
20260905205316 94 304 3.0 3.0 0.00 0.00 0.00 67 1013.2
20260905204815 94 279 0.0 5.0 0.00 0.00 0.00 64 1013.3
20260905204311 94 270 0.0 2.0 0.00 0.00 0.00 66 1013.4
20260905203810 93 341 2.0 3.0 0.00 0.00 0.00 68 1013.2
20260905203306 94 308 2.0 2.0 0.00 0.00 0.00 66 1013.3
20260905202801 94 348 3.0 3.0 0.00 0.00 0.00 64 1013.2
20260905202256 94 216 2.0 2.0 0.00 0.00 0.00 63 1013.3
20260905201751 93 282 3.0 6.0 0.00 0.00 0.00 65 1013.5
20260905201246 93 276 2.0 3.0 0.00 0.00 0.00 67 1013.4
20260905200741 92 282 2.0 2.0 0.00 0.00 0.00 72 1013.7
20260905200237 93 307 0.0 2.0 0.00 0.00 0.00 67 1013.5
20260905195735 93 315 2.0 4.0 0.00 0.00 0.00 67 1013.6
20260905195230 95 8 2.0 3.0 0.00 0.00 0.00 62 1013.5
20260905194726 94 323 0.0 2.0 0.00 0.00 0.00 67 1013.5
20260905194225 92 180 0.0 3.0 0.00 0.00 0.00 66 1013.5
20260905193719 92 352 0.0 1.0 0.00 0.00 0.00 68 1013.4
20260905193214 92 278 0.0 2.0 0.00 0.00 0.00 68 1013.5
20260905192710 92 251 0.0 3.0 0.00 0.00 0.00 66 1013.6
20260905192206 93 335 4.0 4.0 0.00 0.00 0.00 62 1013.8
20260905191706 94 337 0.0 3.0 0.00 0.00 0.00 66 1013.6
20260905191203 94 300 0.0 3.0 0.00 0.00 0.00 63 1013.8
20260905190703 94 236 2.0 3.0 0.00 0.00 0.00 62 1013.7
20260905190201 93 354 0.0 2.0 0.00 0.00 0.00 65 1013.6
20260905185701 93 270 0.0 2.0 0.00 0.00 0.00 66 1013.7
20260905185155 93 270 2.0 2.0 0.00 0.00 0.00 66 1013.8
20260905184655 94 248 0.0 2.0 0.00 0.00 0.00 62 1013.8
20260905184154 94 270 0.0 2.0 0.00 0.00 0.00 63 1013.9
20260905183648 94 209 0.0 2.0 0.00 0.00 0.00 61 1013.9
20260905183143 95 287 2.0 3.0 0.00 0.00 0.00 61 1014.0
20260905182643 95 279 0.0 3.0 0.00 0.00 0.00 61 1014.1
20260905182143 96 270 0.0 3.0 0.00 0.00 0.00 62 1013.9
20260905181638 95 243 2.0 5.0 0.00 0.00 0.00 63 1014.1
20260905181137 94 311 0.0 5.0 0.00 0.00 0.00 66 1013.8
20260905180632 94 255 3.0 4.0 0.00 0.00 0.00 63 1014.1
20260905180127 93 265 2.0 6.0 0.00 0.00 0.00 62 1014.2
20260905175626 94 90 1.0 3.0 0.00 0.00 0.00 65 1014.2
20260905175122 93 294 0.0 4.0 0.00 0.00 0.00 62 1014.1
20260905174617 93 259 4.0 4.0 0.00 0.00 0.00 63 1014.4
20260905174113 93 285 3.0 4.0 0.00 0.00 0.00 65 1014.3
20260905173609 93 159 2.0 4.0 0.00 0.00 0.00 63 1014.5
20260905173104 93 282 0.0 4.0 0.00 0.00 0.00 65 1014.4
20260905172603 93 246 3.0 5.0 0.00 0.00 0.00 64 1014.1
20260905172058 93 308 2.0 3.0 0.00 0.00 0.00 65 1014.2
20260905171554 94 277 3.0 3.0 0.00 0.00 0.00 62 1014.2
20260905171050 93 287 2.0 5.0 0.00 0.00 0.00 62 1014.5
20260905170547 93 273 4.0 5.0 0.00 0.00 0.00 62 1014.5
20260905170041 93 159 2.0 4.0 0.00 0.00 0.00 61 1014.5
20260905165536 93 255 1.0 4.0 0.00 0.00 0.00 64 1014.5
20260905165032 92 206 3.0 3.0 0.00 0.00 0.00 63 1014.5
20260905164526 92 319 3.0 3.0 0.00 0.00 0.00 65 1014.7
20260905164021 93 307 2.0 5.0 0.00 0.00 0.00 61 1014.6
20260905163517 94 0 2.0 2.0 0.00 0.00 0.00 62 1014.4
20260905163013 93 276 2.0 4.0 0.00 0.00 0.00 61 1014.6
20260905162508 93 215 1.0 3.0 0.00 0.00 0.00 62 1014.7
20260905162003 93 270 0.0 3.0 0.00 0.00 0.00 62 1014.8
20260905161503 92 294 1.0 3.0 0.00 0.00 0.00 63 1014.5
20260905161000 91 285 3.0 5.0 0.00 0.00 0.00 65 1014.2
20260905160454 91 264 3.0 5.0 0.00 0.00 0.00 66 1014.5
20260905155954 91 328 2.0 3.0 0.00 0.00 0.00 65 1014.4
20260905155449 91 246 2.0 3.0 0.00 0.00 0.00 67 1014.4
20260905154947 90 236 2.0 3.0 0.00 0.00 0.00 67 1014.5
20260905154442 90 192 3.0 4.0 0.00 0.00 0.00 67 1014.4
20260905153938 91 326 2.0 3.0 0.00 0.00 0.00 66 1014.4
20260905153434 90 246 1.0 3.0 0.00 0.00 0.00 67 1014.1
20260905152933 90 270 0.0 4.0 0.00 0.00 0.00 67 1014.3
20260905152433 90 187 1.0 4.0 0.00 0.00 0.00 70 1014.6
20260905151928 90 270 2.0 3.0 0.00 0.00 0.00 68 1014.3
20260905151424 90 281 3.0 3.0 0.00 0.00 0.00 66 1014.4
20260905150919 89 246 0.0 2.0 0.00 0.00 0.00 69 1014.2
20260905150419 89 261 0.0 7.0 0.00 0.00 0.00 70 1014.1
20260905145915 89 258 2.0 3.0 0.00 0.00 0.00 72 1014.3
20260905145410 88 105 0.0 3.0 0.00 0.00 0.00 70 1014.1
20260905144909 87 348 0.0 1.0 0.00 0.00 0.00 74 1014.5
20260905144405 87 337 0.0 2.0 0.00 0.00 0.00 76 1014.3
20260905143904 86 279 0.0 3.0 0.00 0.00 0.00 76 1014.1
20260905143358 86 246 2.0 3.0 0.00 0.00 0.00 78 1014.0
20260905142857 85 234 0.0 2.0 0.00 0.00 0.00 78 1013.9
20260905142356 84 328 0.0 2.0 0.00 0.00 0.00 79 1013.9
20260905141852 84 261 0.0 2.0 0.00 0.00 0.00 82 1013.9
20260905141347 83 277 0.0 2.0 0.00 0.00 0.00 82 1013.9
20260905140843 82 326 0.0 2.0 0.00 0.00 0.00 82 1013.8
20260905140343 82 345 0.0 1.0 0.00 0.00 0.00 83 1013.7
20260905135841 81 90 0.0 0.0 0.00 0.00 0.00 84 1013.8
20260905135332 81 90 0.0 2.0 0.00 0.00 0.00 84 1014.0
20260905134827 80 180 0.0 0.0 0.00 0.00 0.00 86 1013.9
20260905134320 80 180 0.0 0.0 0.00 0.00 0.00 87 1014.1
20260905133815 80 328 0.0 0.0 0.00 0.00 0.00 88 1014.0
20260905133310 79 328 0.0 2.0 0.00 0.00 0.00 88 1014.1
20260905132809 79 261 0.0 2.0 0.00 0.00 0.00 89 1014.0
20260905132306 78 294 0.0 2.0 0.00 0.00 0.00 90 1014.1
20260905131759 78 283 0.0 1.0 0.00 0.00 0.00 91 1014.0
20260905131255 77 270 0.0 1.0 0.00 0.00 0.00 92 1014.0
20260905130749 77 270 0.0 0.0 0.00 0.00 0.00 93 1013.7
20260905130249 76 346 0.0 0.0 0.00 0.00 0.00 93 1013.9
20260905125744 76 345 0.0 1.0 0.00 0.00 0.00 94 1014.1
20260905125239 75 320 0.0 0.0 0.00 0.00 0.00 94 1013.8